Regional Weather Roundup
Issued by NWS

Home | Current Version | Previous Version | Graphics & Text | Print | Product List | Glossary On
Versions: 1 2 3 4 5 6 7 8 9 10 11 12 13 14 15 16 17 18 19 20 21 22 23 24 25 26 27 28 29 30 31 32 33 34 35 36 37 38 39 40 41 42 43 44 45 46 47 48 49 50
000
ASUS43 KMKX 051510
RWRWI

WISCONSIN REGIONAL WEATHER ROUNDUP
NATIONAL WEATHER SERVICE MILWAUKEE/SULLIVAN WI
900 AM CST THU MAR 05 2015

NOTE: "FAIR" INDICATES FEW OR NO CLOUDS BELOW 12,000 FEET WITH NO
SIGNIFICANT WEATHER AND/OR OBSTRUCTIONS TO VISIBILITY.

WIZ001-002-006>008-014>016-023>028-051600-
NORTHWEST WISCONSIN

CITY           SKY/WX    TMP DP  RH WIND       PRES   REMARKS
SUPERIOR ARPT  MOSUNNY   -7 -15  68 SW7       30.48R WCI -21
ASHLAND        SUNNY     -4 -14  62 SW8       30.45R WCI -19
HAYWARD        SUNNY    -10 -16  74 S5        30.43R WCI -22
SIREN          MOSUNNY   -5 -13  67 CALM      30.48R
CUMBERLAND     SUNNY    -11 -18  70 CALM      30.44R
RICE LAKE      SUNNY     -9 -15  72 W3        30.48R
CHETEK         SUNNY     -7 -14  71 CALM      30.47R
LADYSMITH      SUNNY     -7 -16  65 CALM      30.44R
EAU CLAIRE     SUNNY     -4 -14  62 W6        30.50R WCI -16
MENOMONIE      SUNNY     -3 -13  60 SW3       30.51R
NEW RICHMOND   SUNNY     -4 -12  67 W5        30.49R WCI -14
OSCEOLA        SUNNY     -8 -14  74 CALM      30.53S
$$

WIZ003>005-009-010-017-018-051600-
NORTH CENTRAL WISCONSIN

CITY           SKY/WX    TMP DP  RH WIND       PRES   REMARKS
MANITOWISH WTR SUNNY     -8 -14  72 CALM      30.33R
ARBOR VITAE    SUNNY     -4 -11  70 W5        30.34R WCI -14
WOODRUFF       SUNNY     -4 -11  70 W5        30.34R WCI -14
RHINELANDER    SUNNY     -6 -14  68 W5        30.34R WCI -17
EAGLE RIVER    SUNNY     -4 -13  65 W5        30.32R WCI -14
LAND O LAKES   SUNNY      0  -9  67 W8        30.32R WCI -15
PHILLIPS       MOSUNNY   -8 -15  70 CALM      30.37R
TOMAHAWK       SUNNY     -3 -12  66 CALM      30.38R
MEDFORD        SUNNY     -6 -15  65 CALM      30.39R
MERRILL        SUNNY     -6 -15  63 CALM      30.39R
$$

WIZ029-030-035-036-043>047-051600-
CENTRAL WISCONSIN

CITY           SKY/WX    TMP DP  RH WIND       PRES   REMARKS
WAUSAU         SUNNY     -4 -14  62 NW6       30.41R WCI -16
MOSINEE        SUNNY     -2 -11  65 W3        30.43R
MARSHFIELD     SUNNY     -5 -14  65 W7        30.43R WCI -19
STEVENS POINT  SUNNY     -2 -13  58 SW3       30.45R
WAUPACA        SUNNY      6  -9  49 W3        30.48R
WAUTOMA        SUNNY      3 -11  52 W6        30.49R WCI  -8
WISC RAPIDS    SUNNY     -1 -13  56 CALM      30.48R
CAMP DOUGLAS   SUNNY      1  -9  60 VRB6      30.50R WCI -10
$$

WIZ011>013-019>022-031-037>040-048>050-051600-
NORTHEAST WISCONSIN

CITY           SKY/WX    TMP DP  RH WIND       PRES   REMARKS
ANTIGO         SUNNY    -10 -16  76 CALM      30.37R
SHAWANO        SUNNY      3 -10  54 W3        30.46R
OCONTO         FAIR       2  -8  60 W5        30.47R WCI  -7
STURGEON BAY   SUNNY      0  -9  65 CALM      30.46R
GREEN BAY      SUNNY      2  -9  60 W3        30.47R
MANITOWOC      SUNNY      8  -6  52 NW7       30.47R WCI  -3
APPLETON       SUNNY      0 -11  60 W5        30.46R WCI -10
CLINTONVILLE   SUNNY      3  -9  55 CALM      30.46R
OSHKOSH        SUNNY      2  -9  60 W6        30.47R WCI  -9
$$

WIZ032>034-041-042-053>061-051600-
SOUTHWEST WISCONSIN

CITY           SKY/WX    TMP DP  RH WIND       PRES   REMARKS
LA CROSSE      SUNNY      2 -10  57 CALM      30.55R
SPARTA         SUNNY      2 -11  55 W5        30.52R WCI  -8
VIROQUA        SUNNY     -1 -10  66 NW6       30.47R WCI -13
BOSCOBEL       SUNNY      2  -7  66 S3        30.55R
PRAIRIE DU CHI SUNNY      0 -11  57 W6        30.56R WCI -11
PLATTEVILLE    SUNNY     -1  -8  71 W5        30.50R WCI -11
$$

WIZ056-057-062-063-064-067-068-051600-
SOUTH CENTRAL WISCONSIN

CITY           SKY/WX    TMP DP  RH WIND       PRES   REMARKS
REEDSBURG      SUNNY      1 -10  60 W5        30.49S WCI  -9
BARABOO/DELLS  SUNNY      2 -12  51 CALM      30.48R
LONE ROCK      SUNNY      2  -8  63 W6        30.53R WCI  -9
MINERAL POINT  SUNNY      5  -8  56 NW6       30.47R WCI  -6
MADISON        SUNNY      5  -9  52 N7        30.49R WCI  -7
MIDDLETON      SUNNY      6 -10  48 NW3       30.49R
WATERTOWN      SUNNY      4  -8  57 NW3       30.47R
MONROE         SUNNY      5  -6  61 NW6       30.46R WCI  -6
JANESVILLE     SUNNY      3  -6  66 NW6       30.48R WCI  -8
$$

WIZ051-052-058>065-066-070>072-051600-
SOUTHEAST WISCONSIN

CITY           SKY/WX    TMP DP  RH WIND       PRES   REMARKS
MILWAUKEE      MOSUNNY    9  -9  44 NW8       30.46R WCI  -3
WAUKESHA       NOT AVBL
MILWAUKEE/TIMM SUNNY      7 -11  43 NW10      30.47R WCI  -8
RACINE         SUNNY      8  -9  45 NW8       30.47R WCI  -4
BURLINGTON     SUNNY      4  -9  54 NW8       30.46R WCI  -9
KENOSHA        SUNNY      4  -9  55 NW7       30.46R WCI  -8
FOND DU LAC    SUNNY      5  -9  52 CALM      30.48R
SHEBOYGAN      SUNNY      3  -9  57 W8        30.46R WCI -10
WEST BEND      SUNNY      5 -11  47 NW8       30.45S WCI  -8
JUNEAU         SUNNY      3  -9  56 NW5       30.47S WCI  -6
$$

LSZ147-162-051600-
LAKE SUPERIOR

STATION/POSITION TIME  TEMP    WIND        PRES    WAVE
                       AIR SEA DIR/SP/G            HT/PER
                 (UTC) (F)     (DEG/KT/KT) (MB)    (FT/S)
DEVILS ISLAND    1500    0     230/ 14/ 18 1032.3R
PORT WING        1400   -8     210/  5/  8 1031.2
SAXON HARBOR     1400   -4     200/  7/ 12 1030.5R
$$

LMZ867-665-643>646-051600-
LAKE MICHIGAN

STATION/POSITION TIME  TEMP    WIND        PRES    WAVE
                       AIR SEA DIR/SP/G            HT/PER
                 (UTC) (F)     (DEG/KT/KT) (MB)    (FT/S)
NORTHPORT PIER   1415    0     300/  7/ 11 1030.1R
SISTER BAY       1443    8     300/  7/  8   N/A
KEWAUNEE LAKESHO 1400    0     300/  7/ 11 1029.7R
SHEBOYGAN LAKESH 1500    5     280/  8/  9 1033.7R
PORT WASHINGTON  1400    4     310/  8/ 13 1032.5R
MILWAUKEE LAKESH 1400    6     310/  8/ 11   N/A
KENOSHA   LAKESH 1500    6     300/ 11/ 13 1031.5R
$$

TC  - TEMPERATURE IN CELSIUS
VSB - VISIBILITY IN STATUTE MILES
WCI - WIND CHILL INDEX
HX  - HEAT INDEX



USA.gov is the U.S. government's official web portal to all federal, state and local government web resources and services.